Weather History for Solander Island, BC

Change the Weather History Date:

Friday, November 15, 2013

  Actual Average Record
Temperature  
Mean Temperature 46 °F -  
Max Temperature 48 °F - - ()
Min Temperature 43 °F - - ()
Degree Days  
Heating Degree Days 20    
Moisture  
Dew Point 42 °F    
Average Humidity 85    
Maximum Humidity 97    
Minimum Humidity 65    
Precipitation  
Precipitation 0.67 in - - ()
Sea Level Pressure  
Sea Level Pressure 29.67 in    
Wind  
Wind Speed 22 mph ()    
Max Wind Speed 47 mph    
Max Gust Speed 61 mph    
T = Trace of Precipitation, MM = Missing Value Source: Averaged Metar Reports

Daily Weather History Graph

Daily Weather History Graph

Search for Another Location

Airport:

Trip Planner

Search our weather history database for the weather conditions in past years. The results will help you decide how hot, cold, wet, or windy it might be!

Date:

Astronomy

Nov. 15, 2013 Rise Set
Actual Time 7:45 AM PST 4:46 PM PST
Civil Twilight 7:09 AM PST 5:22 PM PST
Nautical Twilight 6:30 AM PST 6:01 PM PST
Astronomical Twilight 5:52 AM PST 6:40 PM PST
Moon 3:55 PM PST (11/15) 5:38 AM PST (11/15)
Length of Visible Light 10h 12m
Length of Day
9h 01m
Waxing Gibbous, 97% of the Moon is Illuminated
Nov 15
Waxing Gibbous
Nov 17
Full
Nov 25
Last Quarter
Dec 2
New
Dec 9
First Quarter

Hourly Weather History & Observations

Time (PST) Temp. Windchill Dew Point Humidity Pressure Visibility Wind Dir Wind Speed Gust Speed Precip Events Conditions
12:00 AM 44.6 °F 35.9 °F 41.4 °F 88% 30.05 in - WNW 23.0 mph - N/A   Unknown
1:00 AM 45.7 °F 39.1 °F 40.1 °F 81% 30.03 in - WNW 15.0 mph - N/A   Unknown
2:00 AM 44.6 °F 38.8 °F 42.1 °F 91% 30.01 in - WNW 11.5 mph - N/A   Unknown
3:00 AM 45.3 °F 37.6 °F 40.3 °F 83% 29.98 in - West 19.6 mph 25.3 mph N/A   Unknown
4:00 AM 45 °F - 43 °F 88% 29.95 in - West 16.1 mph - -  
4:00 AM 44.8 °F 37.7 °F 42.6 °F 92% 29.95 in - West 16.1 mph - 0.04 in   Unknown
5:00 AM 45.1 °F 39.1 °F 43.5 °F 94% 29.91 in - West 12.7 mph - 0.10 in   Unknown
6:00 AM 45.9 °F 39.7 °F 44.8 °F 96% 29.86 in - West 13.8 mph - 0.09 in   Unknown
7:00 AM 46.6 °F - 45.7 °F 97% 29.80 in - WSW 12.7 mph 18.4 mph 0.11 in   Unknown
8:00 AM 47.7 °F - 46.9 °F 97% 29.75 in - West 16.1 mph - 0.09 in   Unknown
9:00 AM 47.7 °F - 46.8 °F 97% 29.71 in - West 19.6 mph - 0.12 in   Unknown
10:00 AM 48 °F - 47 °F 97% 29.67 in - West 20.7 mph - -  
10:00 AM 48.2 °F - 47.5 °F 97% 29.67 in - West 20.7 mph - 0.13 in   Unknown
11:00 AM 48.2 °F - 47.5 °F 97% 29.61 in - WNW 21.9 mph - 0.09 in   Unknown
12:00 PM 48.2 °F - 47.5 °F 97% 29.57 in - WNW 26.5 mph - 0.03 in   Unknown
1:00 PM 48.0 °F - 47.3 °F 97% 29.53 in - WNW 31.1 mph 39.1 mph N/A   Unknown
2:00 PM 48.7 °F - 44.2 °F 84% 29.50 in - NW 32.2 mph 38.0 mph N/A   Unknown
3:00 PM 48.4 °F - 42.1 °F 79% 29.48 in - NW 38.0 mph 46.0 mph N/A   Unknown
4:00 PM 45 °F - 40 °F 75% 29.45 in - NW 44.9 mph - -  
4:00 PM 45.0 °F 33.3 °F 39.7 °F 82% 29.45 in - NW 44.9 mph 61.0 mph N/A   Unknown
5:00 PM 47.5 °F - 38.8 °F 72% 29.44 in - NW 47.2 mph 54.1 mph N/A   Unknown
6:00 PM 47.3 °F - 39.6 °F 74% 29.44 in - NW 42.6 mph 50.6 mph N/A   Unknown
7:00 PM 43.7 °F 31.7 °F 38.1 °F 81% 29.45 in - NNW 43.7 mph 56.4 mph N/A   Unknown
8:00 PM 45.5 °F 35.5 °F 38.5 °F 76% 29.47 in - NNW 33.4 mph 51.8 mph N/A   Unknown
9:00 PM 45.5 °F 34.2 °F 35.4 °F 68% 29.47 in - NNW 43.7 mph 51.8 mph N/A   Unknown
10:00 PM 45 °F - 37 °F 65% 29.48 in - NW 40.3 mph - -  
10:00 PM 45.0 °F 33.8 °F 37.0 °F 74% 29.48 in - NW 40.3 mph 47.2 mph N/A   Unknown
11:00 PM 45.5 °F 34.6 °F 34.7 °F 66% 29.50 in - NNW 40.3 mph 47.2 mph N/A   Unknown